一网星座-0703星 (ONEWEB-0703)

导读 | 星芒AI

ONEWEB-0703 卫星是OneWeb卫星星座计划中的一颗低轨通信卫星,旨在为全球提供高速互联网服务。该卫星采用标准化设计,具备高容量通信能力,运行在约1200公里高度的近地轨道。作为OneWeb构建全球宽带网络的重要组成部分,该卫星支持偏远地区和航空、航海等移动场景的互联网接入。其发射和部署有助于提升OneWeb在全球卫星互联网市场的竞争力,并推动数字包容性发展。

基本信息
目录编号:
56724
目录名称:
ONEWEB-0703
国际标识:
2023-068Q
轨道中心:
EARTH
卫星名称:
一网星座-0703星
卫星全名:
一网星座-0703星 (ONEWEB-0703)
卫星状态:
在轨 (已飞行940 天)
发射日期:
2023-05-20 UTC
国别 :
英国 (GB)
星等 :
--
轨道信息
数据来源 国际轨道数据
星历时间: 2025-12-15T05:29:11+0800
21小时前
查看轨道信息
半长轴: 7579.903km
偏心率: 0.0002853
轨道倾角: 87.899°
近地点辐角 75.640°
升交点赤经 295.985°
平近点角 284.505°
近地点: 1199.605km
远地点: 1203.931km
周期: 109.460分钟
每日圈数: 13.155499
详细信息
平衡模式:
三轴稳定
覆盖范围:
全球
运营商:
一网卫星公司
运营商所在国:
英国
制造商(研发单位):
一网卫星公司
制造商所在国:
英国
使用方式:
暂无
卫星简介
OneWeb卫星网络由648颗重约125公斤的微型卫星组成,运行在1200公里的轨道上。 每颗卫星都能够提供至少每秒8千兆位的吞吐量,以使用其高吞吐量的Ku频段有效载荷为家庭和移动平台提供互联网接入。该卫星仍在工作。
2D轨道图
3D轨道图
轨道高度分析图
轨道倾角分析图
轨道综合分析图
查看轨道综合分析图